TAP1914 GMMN-LPPT

Flight info

Callsign TAP1914
Flight time 1h 2m
Altitude 36000
Route LAKAM UR722 AMSEL DCT VATZI
Aircraft A343/H-SDE2E3FGHIJ4J5M1RWXY/LB1D1

Departure

Time 2026-05-07 16:55
Airport Mohammed V International Airport (GMMN)

Arrival

Time 2026-05-07 17:58
Airport Lisbon Humberto Delgado Airport (LPPT)
Time Latitude Longitude Altitude Speed Heading
2026-05-07 16:16 33.37157 -7.58372 657 ft 0 kts 120°
2026-05-07 16:44 33.37156 -7.58372 657 ft 0 kts 120°
2026-05-07 16:44 33.37152 -7.58360 657 ft 3 kts 110°
2026-05-07 16:45 33.37161 -7.58326 657 ft 6 kts 61°
2026-05-07 16:45 33.37202 -7.58310 657 ft 7 kts 357°
2026-05-07 16:45 33.37266 -7.58327 657 ft 14 kts 346°
2026-05-07 16:45 33.37400 -7.58370 657 ft 24 kts 345°
2026-05-07 16:46 33.37520 -7.58411 657 ft 17 kts 344°
2026-05-07 16:46 33.37632 -7.58444 657 ft 17 kts 349°
2026-05-07 16:46 33.37747 -7.58467 657 ft 17 kts 347°
2026-05-07 16:46 33.37843 -7.58536 657 ft 16 kts 309°
2026-05-07 16:47 33.37903 -7.58651 657 ft 17 kts 297°
2026-05-07 16:47 33.37892 -7.58776 657 ft 12 kts 248°
2026-05-07 16:47 33.37850 -7.58808 657 ft 7 kts 178°
2026-05-07 16:47 33.37798 -7.58790 657 ft 11 kts 163°
2026-05-07 16:48 33.37708 -7.58757 657 ft 14 kts 163°
2026-05-07 16:48 33.37607 -7.58723 657 ft 16 kts 165°
2026-05-07 16:48 33.37497 -7.58688 657 ft 17 kts 164°
2026-05-07 16:48 33.37382 -7.58647 657 ft 18 kts 163°
2026-05-07 16:49 33.37259 -7.58602 657 ft 19 kts 163°
2026-05-07 16:49 33.37128 -7.58556 657 ft 20 kts 163°
2026-05-07 16:49 33.36990 -7.58508 657 ft 21 kts 164°
2026-05-07 16:49 33.36846 -7.58461 657 ft 22 kts 163°
2026-05-07 16:50 33.36697 -7.58409 657 ft 23 kts 163°
2026-05-07 16:50 33.36542 -7.58355 657 ft 24 kts 164°
2026-05-07 16:50 33.36380 -7.58300 657 ft 25 kts 164°
2026-05-07 16:50 33.36211 -7.58242 656 ft 26 kts 164°
2026-05-07 16:51 33.36037 -7.58183 656 ft 26 kts 164°
2026-05-07 16:51 33.35860 -7.58123 656 ft 27 kts 164°
2026-05-07 16:51 33.35677 -7.58061 656 ft 27 kts 164°
2026-05-07 16:51 33.35498 -7.57999 657 ft 24 kts 164°
2026-05-07 16:52 33.35358 -7.57951 657 ft 20 kts 166°
2026-05-07 16:52 33.35260 -7.57995 657 ft 16 kts 238°
2026-05-07 16:52 33.35227 -7.58122 657 ft 16 kts 255°
2026-05-07 16:52 33.35201 -7.58232 659 ft 10 kts 255°
2026-05-07 16:53 33.35206 -7.58257 659 ft 1 kts 315°
2026-05-07 16:53 33.35212 -7.58258 658 ft 0 kts 342°
2026-05-07 16:54 33.35229 -7.58264 658 ft 12 kts 342°
2026-05-07 16:54 33.35508 -7.58361 655 ft 82 kts 344°
2026-05-07 16:54 33.36306 -7.58635 658 ft 153 kts 344°
2026-05-07 16:55 33.37450 -7.59035 1210 ft 171 kts 345°
2026-05-07 16:55 33.38573 -7.59452 2254 ft 173 kts 342°
2026-05-07 16:55 33.39613 -7.60412 2546 ft 211 kts 310°
2026-05-07 16:55 33.40464 -7.61923 3280 ft 226 kts 306°
2026-05-07 16:56 33.41355 -7.63517 4133 ft 233 kts 306°
2026-05-07 16:56 33.42322 -7.65128 4921 ft 244 kts 305°
2026-05-07 16:56 33.44418 -7.68427 6726 ft 255 kts 306°
2026-05-07 16:57 33.45519 -7.70098 7685 ft 257 kts 305°
2026-05-07 16:57 33.46633 -7.71785 8445 ft 261 kts 304°
2026-05-07 16:57 33.47782 -7.73487 9025 ft 269 kts 309°
2026-05-07 16:57 33.49293 -7.74934 9627 ft 290 kts 329°
2026-05-07 16:58 33.51282 -7.75577 10293 ft 307 kts 353°
2026-05-07 16:58 33.53499 -7.75646 10675 ft 330 kts 358°
2026-05-07 16:58 33.55862 -7.75583 11013 ft 350 kts 359°
2026-05-07 16:58 33.58353 -7.75502 11419 ft 365 kts 359°
2026-05-07 16:59 33.60891 -7.75423 12034 ft 373 kts 359°
2026-05-07 16:59 33.63515 -7.75345 12620 ft 384 kts 359°
2026-05-07 16:59 33.66239 -7.75269 12974 ft 399 kts 359°
2026-05-07 16:59 33.69051 -7.75191 13537 ft 408 kts 359°
2026-05-07 17:00 33.71909 -7.75112 14134 ft 414 kts 359°
2026-05-07 17:00 33.74801 -7.75032 14801 ft 417 kts 358°
2026-05-07 17:00 33.77711 -7.74952 15500 ft 420 kts 358°
2026-05-07 17:00 33.80647 -7.74872 16166 ft 424 kts 358°
2026-05-07 17:01 33.83605 -7.74792 16835 ft 427 kts 357°
2026-05-07 17:01 33.86592 -7.74711 17506 ft 431 kts 357°
2026-05-07 17:01 33.89603 -7.74630 18166 ft 435 kts 357°
2026-05-07 17:01 33.92603 -7.74549 18719 ft 439 kts 357°
2026-05-07 17:02 33.95672 -7.74466 19271 ft 443 kts 356°
2026-05-07 17:02 33.98768 -7.74382 19830 ft 447 kts 356°
2026-05-07 17:02 34.01897 -7.74297 20363 ft 452 kts 356°
2026-05-07 17:02 34.05049 -7.74211 20910 ft 455 kts 356°
2026-05-07 17:03 34.08235 -7.74124 21453 ft 459 kts 356°
2026-05-07 17:03 34.11437 -7.74037 21952 ft 463 kts 356°
2026-05-07 17:03 34.14678 -7.73949 22483 ft 467 kts 356°
2026-05-07 17:03 34.17940 -7.73860 23000 ft 471 kts 356°
2026-05-07 17:04 34.21224 -7.73816 23493 ft 473 kts 354°
2026-05-07 17:04 34.24476 -7.73971 23926 ft 475 kts 351°
2026-05-07 17:04 34.27774 -7.74242 24350 ft 477 kts 350°
2026-05-07 17:04 34.31089 -7.74548 24778 ft 479 kts 350°
2026-05-07 17:05 34.34422 -7.74849 25203 ft 482 kts 350°
2026-05-07 17:05 34.37772 -7.75129 25612 ft 484 kts 351°
2026-05-07 17:05 34.41146 -7.75390 26012 ft 487 kts 351°
2026-05-07 17:05 34.44539 -7.75637 26406 ft 490 kts 351°
2026-05-07 17:06 34.47949 -7.75876 26789 ft 492 kts 351°
2026-05-07 17:06 34.51376 -7.76112 27182 ft 495 kts 351°
2026-05-07 17:06 34.54824 -7.76350 27547 ft 497 kts 351°
2026-05-07 17:06 34.58286 -7.76588 27869 ft 500 kts 351°
2026-05-07 17:07 34.61768 -7.76829 27956 ft 501 kts 351°
2026-05-07 17:07 34.65251 -7.77070 27966 ft 501 kts 351°
2026-05-07 17:07 34.68738 -7.77312 28195 ft 504 kts 351°
2026-05-07 17:07 34.72196 -7.77554 28563 ft 505 kts 351°
2026-05-07 17:08 34.75702 -7.77802 29044 ft 504 kts 351°
2026-05-07 17:08 34.79202 -7.78074 29545 ft 503 kts 351°
2026-05-07 17:08 34.82685 -7.78366 30034 ft 501 kts 350°
2026-05-07 17:08 34.86157 -7.78664 30438 ft 500 kts 350°
2026-05-07 17:09 34.89511 -7.78952 30840 ft 498 kts 350°
2026-05-07 17:09 34.93118 -7.79261 31287 ft 496 kts 350°
2026-05-07 17:09 34.96558 -7.79552 31709 ft 494 kts 349°
2026-05-07 17:09 34.99978 -7.79841 32130 ft 493 kts 349°
2026-05-07 17:10 35.03397 -7.80128 32509 ft 492 kts 349°
2026-05-07 17:10 35.06806 -7.80415 32878 ft 491 kts 349°
2026-05-07 17:10 35.10209 -7.80700 33242 ft 490 kts 349°
2026-05-07 17:10 35.13605 -7.80986 33621 ft 488 kts 349°
2026-05-07 17:11 35.16988 -7.81269 33988 ft 487 kts 349°
2026-05-07 17:11 35.20318 -7.81549 34289 ft 486 kts 349°
2026-05-07 17:11 35.23688 -7.81833 34593 ft 485 kts 348°
2026-05-07 17:11 35.27047 -7.82117 34893 ft 484 kts 348°
2026-05-07 17:12 35.30408 -7.82401 35138 ft 484 kts 348°
2026-05-07 17:12 35.33771 -7.82686 35422 ft 483 kts 348°
2026-05-07 17:12 35.37119 -7.82969 35719 ft 482 kts 348°
2026-05-07 17:12 35.40513 -7.83256 35925 ft 483 kts 348°
2026-05-07 17:13 35.47225 -7.83846 35950 ft 482 kts 348°
2026-05-07 17:13 35.53862 -7.84447 35948 ft 481 kts 347°
2026-05-07 17:14 35.60550 -7.85057 35944 ft 482 kts 347°
2026-05-07 17:14 35.67244 -7.85664 35944 ft 483 kts 347°
2026-05-07 17:15 35.73944 -7.86270 35944 ft 483 kts 347°
2026-05-07 17:15 35.80641 -7.86876 35945 ft 483 kts 347°
2026-05-07 17:16 35.87297 -7.87480 35941 ft 483 kts 347°
2026-05-07 17:16 35.93979 -7.88165 35940 ft 478 kts 343°
2026-05-07 17:17 36.00283 -7.90219 35961 ft 461 kts 329°
2026-05-07 17:17 36.06116 -7.93416 35941 ft 458 kts 326°
2026-05-07 17:18 36.11888 -7.96768 35938 ft 458 kts 326°
2026-05-07 17:18 36.17602 -8.00138 35938 ft 458 kts 326°
2026-05-07 17:19 36.23351 -8.03547 35960 ft 458 kts 326°
2026-05-07 17:19 36.29091 -8.06962 35936 ft 458 kts 326°
2026-05-07 17:20 36.34830 -8.10382 35935 ft 458 kts 326°
2026-05-07 17:20 36.40568 -8.13808 35878 ft 457 kts 326°
2026-05-07 17:21 36.43423 -8.15513 35639 ft 454 kts 326°
2026-05-07 17:21 36.46266 -8.17213 35401 ft 454 kts 326°
2026-05-07 17:21 36.49114 -8.18921 35172 ft 455 kts 326°
2026-05-07 17:21 36.51930 -8.20609 34930 ft 456 kts 326°
2026-05-07 17:22 36.54788 -8.22324 34695 ft 457 kts 326°
2026-05-07 17:22 36.57650 -8.24043 34452 ft 458 kts 326°
2026-05-07 17:22 36.60522 -8.25768 34216 ft 459 kts 326°
2026-05-07 17:22 36.63403 -8.27501 33979 ft 460 kts 326°
2026-05-07 17:23 36.66286 -8.29236 33714 ft 461 kts 326°
2026-05-07 17:23 36.69175 -8.30976 33442 ft 462 kts 326°
2026-05-07 17:23 36.72074 -8.32724 33199 ft 463 kts 326°
2026-05-07 17:23 36.74981 -8.34477 32938 ft 464 kts 327°
2026-05-07 17:24 36.77893 -8.36236 32668 ft 467 kts 327°
2026-05-07 17:24 36.80826 -8.38010 32421 ft 470 kts 327°
2026-05-07 17:24 36.83770 -8.39790 32173 ft 471 kts 327°
2026-05-07 17:24 36.86724 -8.41578 31909 ft 472 kts 327°
2026-05-07 17:25 36.89641 -8.43345 31662 ft 473 kts 327°
2026-05-07 17:25 36.92604 -8.45141 31317 ft 473 kts 327°
2026-05-07 17:25 36.95565 -8.46936 30769 ft 471 kts 328°
2026-05-07 17:25 36.98494 -8.48712 30270 ft 466 kts 328°
2026-05-07 17:26 37.01403 -8.50479 29727 ft 463 kts 328°
2026-05-07 17:26 37.04280 -8.52229 29189 ft 458 kts 328°
2026-05-07 17:26 37.07130 -8.53963 28691 ft 453 kts 328°
2026-05-07 17:26 37.09944 -8.55678 28178 ft 448 kts 328°
2026-05-07 17:27 37.12734 -8.57380 27672 ft 444 kts 328°
2026-05-07 17:27 37.15498 -8.59068 27183 ft 440 kts 328°
2026-05-07 17:27 37.18200 -8.60719 26697 ft 436 kts 328°
2026-05-07 17:27 37.20916 -8.62381 26197 ft 433 kts 329°
2026-05-07 17:28 37.23614 -8.64033 25695 ft 430 kts 329°
2026-05-07 17:28 37.26294 -8.65675 25225 ft 427 kts 329°
2026-05-07 17:28 37.28971 -8.67319 24971 ft 432 kts 329°
2026-05-07 17:28 37.31683 -8.68985 24931 ft 434 kts 329°
2026-05-07 17:29 37.34394 -8.70649 24927 ft 434 kts 329°
2026-05-07 17:29 37.37107 -8.72316 24817 ft 432 kts 329°
2026-05-07 17:29 37.39803 -8.73972 24125 ft 434 kts 329°
2026-05-07 17:29 37.42532 -8.75654 23280 ft 440 kts 329°
2026-05-07 17:30 37.45252 -8.77331 22452 ft 442 kts 329°
2026-05-07 17:30 37.48017 -8.79034 21711 ft 442 kts 329°
2026-05-07 17:30 37.50777 -8.80736 21018 ft 441 kts 330°
2026-05-07 17:30 37.53527 -8.82433 20386 ft 439 kts 330°
2026-05-07 17:31 37.56236 -8.84103 20106 ft 428 kts 330°
2026-05-07 17:31 37.58881 -8.85724 19868 ft 417 kts 331°
2026-05-07 17:31 37.61563 -8.87030 19652 ft 409 kts 337°
2026-05-07 17:31 37.64234 -8.88128 19458 ft 399 kts 338°
2026-05-07 17:32 37.66853 -8.89184 19148 ft 392 kts 338°
2026-05-07 17:32 37.69438 -8.90231 18775 ft 388 kts 338°
2026-05-07 17:32 37.72001 -8.91273 18388 ft 386 kts 338°
2026-05-07 17:32 37.73686 -8.91959 18094 ft 384 kts 338°
2026-05-07 17:33 37.76961 -8.93291 17778 ft 373 kts 338°
2026-05-07 17:33 37.79400 -8.94282 17595 ft 364 kts 338°
2026-05-07 17:33 37.81786 -8.95254 17415 ft 356 kts 338°
2026-05-07 17:33 37.84113 -8.96203 17259 ft 347 kts 338°
2026-05-07 17:34 37.86393 -8.97134 17037 ft 342 kts 339°
2026-05-07 17:34 37.88641 -8.98053 16686 ft 337 kts 339°
2026-05-07 17:34 37.90853 -8.98958 15969 ft 331 kts 339°
2026-05-07 17:34 37.93046 -8.99856 15010 ft 333 kts 339°
2026-05-07 17:35 37.95207 -9.00742 14295 ft 327 kts 340°
2026-05-07 17:35 37.97334 -9.01612 13873 ft 321 kts 340°
2026-05-07 17:35 37.99469 -9.02489 13552 ft 321 kts 340°
2026-05-07 17:35 38.01590 -9.03361 13172 ft 321 kts 340°
2026-05-07 17:36 38.03689 -9.04247 12847 ft 317 kts 339°
2026-05-07 17:36 38.05780 -9.05136 12569 ft 314 kts 339°
2026-05-07 17:36 38.07855 -9.06017 12250 ft 315 kts 339°
2026-05-07 17:36 38.09941 -9.06902 12139 ft 314 kts 339°
2026-05-07 17:37 38.12002 -9.07774 12035 ft 314 kts 339°
2026-05-07 17:37 38.14073 -9.08652 11910 ft 309 kts 340°
2026-05-07 17:37 38.16123 -9.09355 11405 ft 308 kts 352°
2026-05-07 17:37 38.18221 -9.09031 11022 ft 312 kts 23°
2026-05-07 17:38 38.19960 -9.07473 10723 ft 306 kts 48°
2026-05-07 17:38 38.21373 -9.05438 10416 ft 307 kts 52°
2026-05-07 17:38 38.22744 -9.03366 10155 ft 304 kts 51°
2026-05-07 17:38 38.24107 -9.01332 9664 ft 300 kts 51°
2026-05-07 17:39 38.25466 -8.99326 8900 ft 299 kts 51°
2026-05-07 17:39 38.26822 -8.97337 8198 ft 296 kts 51°
2026-05-07 17:39 38.28164 -8.95374 7537 ft 292 kts 51°
2026-05-07 17:39 38.29505 -8.93440 7070 ft 291 kts 49°
2026-05-07 17:40 38.31153 -8.91964 6928 ft 288 kts 20°
2026-05-07 17:40 38.33008 -8.91734 6905 ft 263 kts 348°
2026-05-07 17:40 38.34655 -8.92636 6924 ft 258 kts 321°
2026-05-07 17:40 38.35998 -8.94125 6923 ft 256 kts 313°
2026-05-07 17:41 38.37272 -8.95706 6925 ft 255 kts 313°
2026-05-07 17:41 38.38584 -8.97224 6916 ft 256 kts 323°
2026-05-07 17:41 38.40249 -8.98015 6924 ft 259 kts 354°
2026-05-07 17:41 38.42015 -8.97716 6929 ft 258 kts 21°
2026-05-07 17:42 38.43655 -8.96786 6923 ft 258 kts 28°
2026-05-07 17:42 38.45256 -8.95740 6922 ft 259 kts 29°
2026-05-07 17:42 38.46877 -8.94731 6917 ft 260 kts 21°
2026-05-07 17:42 38.48620 -8.94285 6920 ft 260 kts 359°
2026-05-07 17:43 38.50346 -8.94841 6916 ft 255 kts 327°
2026-05-07 17:43 38.51548 -8.96419 6923 ft 247 kts 293°
2026-05-07 17:43 38.51892 -8.98499 6924 ft 239 kts 261°
2026-05-07 17:43 38.51356 -9.00433 6917 ft 230 kts 228°
2026-05-07 17:44 38.50096 -9.01617 6926 ft 226 kts 205°
2026-05-07 17:44 38.48659 -9.02456 6928 ft 228 kts 202°
2026-05-07 17:44 38.47209 -9.03270 6922 ft 228 kts 202°
2026-05-07 17:44 38.45758 -9.04099 6926 ft 228 kts 203°
2026-05-07 17:45 38.44334 -9.04926 6929 ft 228 kts 203°
2026-05-07 17:45 38.42891 -9.05772 6923 ft 228 kts 203°
2026-05-07 17:45 38.41448 -9.06622 6925 ft 228 kts 203°
2026-05-07 17:45 38.40004 -9.07475 6927 ft 229 kts 203°
2026-05-07 17:46 38.38558 -9.08331 6927 ft 229 kts 203°
2026-05-07 17:46 38.37118 -9.09183 6939 ft 228 kts 204°
2026-05-07 17:46 38.35714 -9.10124 6930 ft 228 kts 215°
2026-05-07 17:46 38.34659 -9.11614 6931 ft 229 kts 241°
2026-05-07 17:47 38.34167 -9.13547 6931 ft 232 kts 255°
2026-05-07 17:47 38.33859 -9.15541 6931 ft 233 kts 257°
2026-05-07 17:47 38.33568 -9.17577 6928 ft 234 kts 259°
2026-05-07 17:47 38.33657 -9.19644 6773 ft 237 kts 286°
2026-05-07 17:48 38.34560 -9.21408 6476 ft 243 kts 316°
2026-05-07 17:48 38.35955 -9.22642 6215 ft 245 kts 327°
2026-05-07 17:48 38.37434 -9.23688 6059 ft 240 kts 329°
2026-05-07 17:48 38.38867 -9.24656 5905 ft 226 kts 328°
2026-05-07 17:49 38.39778 -9.25244 5769 ft 218 kts 332°
2026-05-07 17:49 38.41119 -9.25996 5636 ft 204 kts 334°
2026-05-07 17:49 38.42413 -9.26683 5381 ft 200 kts 334°
2026-05-07 17:49 38.43679 -9.27354 5116 ft 195 kts 334°
2026-05-07 17:50 38.44921 -9.28016 4827 ft 192 kts 334°
2026-05-07 17:50 38.46548 -9.28878 4420 ft 189 kts 332°
2026-05-07 17:50 38.47828 -9.29221 4108 ft 193 kts
2026-05-07 17:50 38.48730 -9.29028 4028 ft 196 kts
2026-05-07 17:51 38.50021 -9.28543 4021 ft 195 kts 13°
2026-05-07 17:51 38.51303 -9.27967 4022 ft 195 kts 18°
2026-05-07 17:51 38.52540 -9.27255 4020 ft 196 kts 19°
2026-05-07 17:51 38.53777 -9.26574 4018 ft 189 kts 19°
2026-05-07 17:52 38.54969 -9.25935 4019 ft 185 kts 18°
2026-05-07 17:52 38.56155 -9.25307 4023 ft 184 kts 17°
2026-05-07 17:52 38.57342 -9.24680 4020 ft 184 kts 18°
2026-05-07 17:52 38.58522 -9.24058 4018 ft 184 kts 18°
2026-05-07 17:53 38.59690 -9.23437 3991 ft 178 kts 18°
2026-05-07 17:53 38.60815 -9.22837 3793 ft 174 kts 17°
2026-05-07 17:53 38.61926 -9.22247 3543 ft 172 kts 19°
2026-05-07 17:53 38.63025 -9.21657 3299 ft 171 kts 18°
2026-05-07 17:54 38.64104 -9.21085 3055 ft 169 kts 16°
2026-05-07 17:54 38.65189 -9.20507 2821 ft 168 kts 17°
2026-05-07 17:54 38.66250 -9.19940 2570 ft 159 kts 18°
2026-05-07 17:54 38.67219 -9.19423 2362 ft 144 kts 16°
2026-05-07 17:55 38.68131 -9.18937 2174 ft 141 kts 16°
2026-05-07 17:55 38.69035 -9.18455 1987 ft 140 kts 15°
2026-05-07 17:55 38.69937 -9.17973 1799 ft 141 kts 14°
2026-05-07 17:55 38.70840 -9.17493 1607 ft 140 kts 16°
2026-05-07 17:56 38.71738 -9.17011 1420 ft 140 kts 15°
2026-05-07 17:56 38.72631 -9.16534 1221 ft 141 kts 15°
2026-05-07 17:56 38.73535 -9.16052 1037 ft 141 kts 16°
2026-05-07 17:56 38.74427 -9.15575 837 ft 138 kts 17°
2026-05-07 17:57 38.75312 -9.15093 654 ft 138 kts 17°
2026-05-07 17:57 38.76207 -9.14614 470 ft 140 kts 17°
2026-05-07 17:57 38.77095 -9.14143 368 ft 131 kts 19°
2026-05-07 17:57 38.77741 -9.13803 363 ft 67 kts 23°
2026-05-07 17:58 38.78065 -9.13627 364 ft 44 kts 22°
2026-05-07 17:58 38.78319 -9.13428 366 ft 29 kts 46°
2026-05-07 17:58 38.78373 -9.13316 364 ft 7 kts 88°
2026-05-07 17:58 38.78365 -9.13290 361 ft 3 kts 117°
2026-05-07 17:59 38.78347 -9.13271 365 ft 3 kts 149°
2026-05-07 17:59 38.78327 -9.13268 364 ft 4 kts 179°
2026-05-07 17:59 38.78299 -9.13278 365 ft 5 kts 199°
2026-05-07 17:59 38.78259 -9.13298 362 ft 8 kts 201°
2026-05-07 18:00 38.78200 -9.13328 356 ft 11 kts 201°
2026-05-07 18:00 38.78127 -9.13367 364 ft 12 kts 203°
2026-05-07 18:00 38.78064 -9.13399 364 ft 9 kts 201°
2026-05-07 18:00 38.77996 -9.13410 361 ft 11 kts 173°
2026-05-07 18:01 38.77917 -9.13389 360 ft 13 kts 167°
2026-05-07 18:01 38.77833 -9.13365 362 ft 12 kts 167°
2026-05-07 18:01 38.77760 -9.13346 360 ft 9 kts 169°
2026-05-07 18:01 38.77706 -9.13334 361 ft 9 kts 170°
2026-05-07 18:02 38.77596 -9.13320 361 ft 7 kts 175°
2026-05-07 18:02 38.77544 -9.13310 361 ft 8 kts 169°
2026-05-07 18:02 38.77507 -9.13300 364 ft 5 kts 167°
2026-05-07 18:03 38.77480 -9.13292 361 ft 4 kts 163°
2026-05-07 18:03 38.77462 -9.13267 363 ft 2 kts 108°
2026-05-07 18:03 38.77466 -9.13258 357 ft 3 kts 73°
2026-05-07 18:03 38.77475 -9.13226 362 ft 4 kts 66°
2026-05-07 18:04 38.77484 -9.13193 362 ft 2 kts 75°
2026-05-07 18:04 38.77486 -9.13183 360 ft 1 kts 76°
2026-05-07 18:04 38.77487 -9.13172 360 ft 0 kts 77°
2026-05-07 18:04 38.77488 -9.13171 359 ft 0 kts 78°